Regional Weather Roundup
Issued by NWS

Home | Current Version | Previous Version | Graphics & Text | Print | Product List | Glossary On
Versions: 1 2 3 4 5 6 7 8 9 10 11 12 13 14 15 16 17 18 19 20 21 22 23 24 25 26 27 28 29 30 31 32 33 34 35 36 37 38 39 40 41 42 43 44 45 46 47 48 49 50
000
ASUS43 KLOT 120058
RWRIL

ILLINOIS REGIONAL WEATHER ROUNDUP
NATIONAL WEATHER SERVICE CHICAGO/ROMEOVILLE IL
800 PM CDT FRI JUL 11 2014

NOTE: "FAIR" INDICATES FEW OR NO CLOUDS BELOW 12,000 FEET WITH NO
SIGNIFICANT WEATHER AND/OR OBSTRUCTIONS TO VISIBILITY.

* THESE STATIONS ARE NOT UNDER NWS QUALITY CONTROL. THEY ALSO MAY NOT
  REPORT WEATHER SUCH AS PRECIPITATION OR FOG.

ILZ001-002-007-009-015-016-024-120200-
NORTHWEST ILLINOIS

CITY           SKY/WX    TMP DP  RH WIND       PRES   REMARKS
MOLINE         CLOUDY    78  68  71 CALM      30.06R HX  80
$$

ILZ003-004-008-010-011-017-018-120200-
NORTH CENTRAL ILLINOIS

CITY           SKY/WX    TMP DP  RH WIND       PRES   REMARKS
ROCKFORD       NOT AVBL
$$

ILZ005-006-012>014-019>023-120200-
NORTHEAST ILLINOIS

CITY           SKY/WX    TMP DP  RH WIND       PRES   REMARKS
CHICAGO-OHARE  MOCLDY    75  57  53 S7        30.10F
CHICAGO-MIDWAY CLOUDY    80  57  45 S8        30.11S HX  80
AURORA         CLOUDY    73  62  68 SE6       30.11S
WAUKEGAN       MOCLDY    71  58  63 E3        30.11S
DUPAGE AIRPORT CLOUDY    74  58  57 S6        30.11S
WHEELING       MOCLDY    75  61  61 SE5       30.12F
NORTHERLY ISL    N/A     73  59  61 S3          N/A
$$

LMZ740>746-120200-
SOUTHERN LAKE MICHIGAN

STATION/POSITION SKY/WX   TEMP    WIND        PRES    VSBY  WAVE
                          AIR SEA DIR/SP/G                  HT/PER
                          (F)     (DEG/KT/KT) (MB)    (MI)  (FT/S)
SOUTHERN BUOY              65 63  100/  4/  4 1020.3R         0
WAUKEGAN HARBOR            68     190/ 10/ 10 1020.7S
HARRISON CRIB              71     120/  8/  9   N/A
BURNHAM HARBOR             71      CALM  /  5   N/A
CALUMET HARBOR             78     180/  6/  9 1020.6R
BURNS HARBOR               75     190/  9/ 12 1020.3R
MICHIGAN CITY              74     170/  5/  7   N/A
$$

ILZ025>027-034>036-040-047-049-050-058-095>099-120200-
WEST-CENTRAL ILLINOIS

CITY           SKY/WX    TMP DP  RH WIND       PRES   REMARKS
QUINCY         CLOUDY    80  70  71 SE8       30.04S HX  83
$$

ILZ028>032-037-038-041>044-048-051>054-059>061-120200-
CENTRAL ILLINOIS

CITY           SKY/WX    TMP DP  RH WIND       PRES   REMARKS
PEORIA         NOT AVBL
SPRINGFIELD    CLOUDY    82  65  56 SE8       30.09F HX  84
TAYLORVILLE    NOT AVBL
$$

ILZ033-039-045-046-055>057-062-063-120200-
EAST-CENTRAL ILLINOIS

CITY           SKY/WX    TMP DP  RH WIND       PRES   REMARKS
CHAMPAIGN      PTCLDY    74  64  71 SE5       30.14R
MATTOON        CLEAR     78  64  61 CALM      30.13R HX  80
$$

ILZ079-100>102-120200-
SOUTHWEST ILLINOIS

CITY           SKY/WX    TMP DP  RH WIND       PRES   REMARKS
CAHOKIA*       PTCLDY    83  70  64 S5        30.08R HX  87
$$

ILZ064>066-069>071-074>076-080>082-084>086-088>090-092>094-120200-
SOUTH-CENTRAL ILLINOIS

CITY           SKY/WX    TMP DP  RH WIND       PRES   REMARKS
CARBONDALE     CLEAR     82  68  62 S6        30.11R HX  85
$$

ILZ067-068-072-073-078-083-087-091-120200-
SOUTHEAST ILLINOIS

CITY           SKY/WX    TMP DP  RH WIND       PRES   REMARKS
$$

ABBREVIATIONS USED IN REMARKS
   TC - TEMPERATURE IN CELSIUS
  WCI - WIND CHILL INDEX
   HX - HEAT INDEX
  VSB - VISIBILITY
$$



USA.gov is the U.S. government's official web portal to all federal, state and local government web resources and services.